Location: Dammartin
(48.9032°N, 1.6195°E)
Time: 20:42:52
(UTC+00:00)

Cosmos 2219 Rocket - Pass Details

Date: 03 February 2023
Orbit: 826 x 848 km, 71.0° (Epoch: 21 March)

Event Time Altitude Azimuth Distance (km) Brightness Sun altitude
Rises 19:46:55 0° 212° (SSW) 3,354 5.6 -28.6°
Reaches altitude 10° 19:49:20 10° 214° (SW) 2,425 4.8 -29.0°
Enters shadow 19:54:32 71° 265° (W) 877 2.3 -29.8°
